This demonstration page uses our WeatherBlox Daily Observations layout. Learn more.

Left ArrowRight Arrow

36.19886, -115.1175

Hourly Observations for December 26, 2015

Temp ( °F °C ) Dew Point ( °F °C ) Humidity (%) Winds ( mph kmh ) Pressure ( in mb ) Visibility ( mi km ) Precip ( " mm )
12:53 am 00:53 Clear 39 3.9 12 -11.1 33 33 NNW 17 28 30.20 1023 10 16 0.00 0.00
1:53 am 01:53 Clear 38 3.3 11 -11.7 33 33 NNW 17 28 30.23 1024 10 16 0.00 0.00
2:53 am 02:53 Clear 38 3.3 10 -12.2 31 31 NNW 17 28 30.24 1024 10 16 0.00 0.00
3:53 am 03:53 Clear 38 3.3 9 -12.8 30 30 NNW 18 30 30.24 1024 10 16 0.00 0.00
4:53 am 04:53 Clear 38 3.3 8 -13.3 29 29 NNW 29 46 30.26 1025 10 16 0.00 0.00
5:53 am 05:53 Clear 37 2.8 7 -13.9 28 28 NNW 15 24 30.31 1027 10 16 0.00 0.00
6:53 am 06:53 Sunny 37 2.8 7 -13.9 28 28 N 23 37 30.34 1028 10 16 0.00 0.00
7:53 am 07:53 Sunny 37 2.8 7 -13.9 28 28 NNW 24 39 30.38 1029 10 16 0.00 0.00
8:53 am 08:53 Sunny 40 4.4 6 -14.4 24 24 NNW 24 39 30.42 1030 10 16 0.00 0.00
9:53 am 09:53 Sunny 41 5 5 -15 22 22 N 24 39 30.45 1031 10 16 0.00 0.00
10:53 am 10:53 Sunny 43 6.1 5 -15 21 21 N 23 37 30.43 1031 10 16 0.00 0.00
11:53 am 11:53 Sunny 45 7.2 3 -16.1 17 17 N 28 44 30.40 1029 10 16 0.00 0.00
12:53 pm 12:53 Sunny 46 7.8 3 -16.1 17 17 NNW 26 43 30.37 1029 10 16 0.00 0.00
1:53 pm 13:53 Sunny 47 8.3 3 -16.1 16 16 NNW 24 39 30.36 1028 10 16 0.00 0.00
2:53 pm 14:53 Sunny 47 8.3 2 -16.7 15 15 N 24 39 30.36 1028 10 16 0.00 0.00
3:53 pm 15:53 Sunny 46 7.8 1 -17.2 15 15 N 22 35 30.37 1028 10 16 0.00 0.00
4:53 pm 16:53 Clear 44 6.7 2 -16.7 17 17 N 21 33 30.41 1030 10 16 0.00 0.00
5:53 pm 17:53 Clear 43 6.1 2 -16.7 18 18 N 15 24 30.42 1030 10 16 0.00 0.00
6:53 pm 18:53 Clear 41 5 3 -16.1 20 20 N 15 24 30.44 1031 10 16 0.00 0.00
7:53 pm 19:53 Clear 41 5 4 -15.6 21 21 N 21 33 30.45 1031 10 16 0.00 0.00
8:53 pm 20:53 Clear 41 5 4 -15.6 21 21 NNW 18 30 30.44 1031 10 16 0.00 0.00
9:53 pm 21:53 Clear 40 4.4 3 -16.1 21 21 NNW 21 33 30.44 1031 10 16 0.00 0.00
10:53 pm 22:53 Clear 40 4.4 3 -16.1 21 21 N 17 28 30.44 1031 10 16 0.00 0.00
11:53 pm 23:53 Clear 39 3.9 2 -16.7 21 21 N 21 33 30.42 1030 10 16 0.00 0.00

Powered by AerisWeather